• In Belarus
  • List of Countries
  • For 7 days
  • Water Temperature
  • Satellite Maps
  • Weather Map
  • Weather Widgets
  • user-avatar
    Login

    Hourly Weather Amar

    Today, 20 March, Wednesday

    Time Temperature Precipitation Wind Pressure Humidity
    00:00 +20°C° 0 mm 6 mps 759 mmHg 47%
    01:00 +20°C° 0 mm 6 mps 759 mmHg 47%
    02:00 +20°C° 0 mm 6 mps 759 mmHg 48%
    03:00 +20°C° 0 mm 6 mps 758 mmHg 48%
    04:00 +20°C° 0 mm 6 mps 758 mmHg 49%
    05:00 +20°C° 0 mm 6 mps 758 mmHg 50%
    06:00 +20°C° 0 mm 5 mps 758 mmHg 51%
    07:00 +20°C° 0 mm 5 mps 758 mmHg 47%
    08:00 +21°C° 0 mm 5 mps 759 mmHg 42%
    09:00 +22°C° 0 mm 5 mps 759 mmHg 37%
    10:00 +23°C° 0 mm 5 mps 759 mmHg 35%
    11:00 +24°C° 0 mm 6 mps 758 mmHg 33%
    12:00 +24°C° 0 mm 6 mps 758 mmHg 31%
    13:00 +24°C° 0 mm 6 mps 758 mmHg 32%
    14:00 +24°C° 0 mm 6 mps 757 mmHg 33%
    15:00 +24°C° 0 mm 7 mps 757 mmHg 35%
    16:00 +23°C° 0 mm 6 mps 757 mmHg 38%
    17:00 +22°C° 0 mm 5 mps 757 mmHg 42%
    18:00 +22°C° 0 mm 4 mps 757 mmHg 46%
    19:00 +22°C° 0 mm 4 mps 757 mmHg 47%
    20:00 +21°C° 0 mm 4 mps 758 mmHg 49%
    21:00 +21°C° 0 mm 4 mps 758 mmHg 50%
    22:00 +21°C° 0 mm 4 mps 758 mmHg 49%
    23:00 +21°C° 0 mm 3 mps 757 mmHg 48%

    Tomorrow, 21 March, Thursday

    Time Temperature Precipitation Wind Pressure Humidity
    00:00 +21°C° 0 mm 3 mps 757 mmHg 46%
    01:00 +21°C° 0 mm 3 mps 757 mmHg 48%
    02:00 +21°C° 0 mm 3 mps 756 mmHg 49%
    03:00 +20°C° 0 mm 3 mps 756 mmHg 50%
    04:00 +20°C° 0 mm 3 mps 756 mmHg 54%
    05:00 +20°C° 0 mm 3 mps 756 mmHg 57%
    06:00 +20°C° 0 mm 4 mps 757 mmHg 60%
    07:00 +21°C° 0 mm 3 mps 757 mmHg 55%
    08:00 +22°C° 0 mm 3 mps 758 mmHg 50%
    09:00 +24°C° 0 mm 3 mps 758 mmHg 45%
    10:00 +25°C° 0 mm 3 mps 758 mmHg 41%
    11:00 +26°C° 0 mm 4 mps 758 mmHg 37%
    12:00 +26°C° 0 mm 4 mps 757 mmHg 33%
    13:00 +26°C° 0 mm 4 mps 757 mmHg 33%
    14:00 +26°C° 0 mm 4 mps 756 mmHg 34%
    15:00 +26°C° 0 mm 4 mps 756 mmHg 34%
    16:00 +25°C° 0 mm 4 mps 756 mmHg 37%
    17:00 +25°C° 0 mm 4 mps 756 mmHg 41%
    18:00 +23°C° 0 mm 4 mps 756 mmHg 44%
    19:00 +23°C° 0 mm 4 mps 757 mmHg 44%
    20:00 +23°C° 0 mm 4 mps 757 mmHg 45%
    21:00 +23°C° 0 mm 4 mps 757 mmHg 45%
    22:00 +23°C° 0 mm 4 mps 757 mmHg 46%
    23:00 +22°C° 0 mm 4 mps 757 mmHg 46%

    Day after tomorrow, 22 March, Friday

    Time Temperature Precipitation Wind Pressure Humidity
    00:00 +22°C° 0 mm 4 mps 756 mmHg 47%
    01:00 +22°C° 0.1 mm 4 mps 756 mmHg 49%
    02:00 +22°C° 0.1 mm 5 mps 756 mmHg 51%
    03:00 +22°C° 0.1 mm 5 mps 755 mmHg 53%
    04:00 +21°C° 0.1 mm 5 mps 756 mmHg 55%
    05:00 +21°C° 0.1 mm 4 mps 756 mmHg 57%
    06:00 +21°C° 0.1 mm 4 mps 757 mmHg 58%
    07:00 +22°C° 0 mm 4 mps 757 mmHg 53%
    08:00 +23°C° 0 mm 5 mps 758 mmHg 47%
    09:00 +26°C° 0 mm 5 mps 758 mmHg 41%
    10:00 +26°C° 0 mm 5 mps 758 mmHg 38%
    11:00 +27°C° 0 mm 5 mps 758 mmHg 35%
    12:00 +28°C° 0 mm 6 mps 757 mmHg 33%
    13:00 +27°C° 0 mm 6 mps 757 mmHg 33%
    14:00 +27°C° 0 mm 6 mps 756 mmHg 33%
    15:00 +27°C° 0 mm 6 mps 756 mmHg 34%
    16:00 +26°C° 0 mm 5 mps 756 mmHg 37%
    17:00 +26°C° 0 mm 5 mps 756 mmHg 41%
    18:00 +25°C° 0 mm 5 mps 756 mmHg 44%
    19:00 +25°C° 0 mm 4 mps 757 mmHg 46%
    20:00 +23°C° 0 mm 4 mps 757 mmHg 47%
    21:00 +23°C° 0 mm 4 mps 758 mmHg 49%
    22:00 +24°C° 0 mm 3 mps 757 mmHg 49%
    23:00 +24°C° 0 mm 3 mps 757 mmHg 49%

    23 March, Saturday

    Time Temperature Precipitation Wind Pressure Humidity
    00:00 +24°C° 0 mm 3 mps 757 mmHg 48%
    01:00 +22°C° 0 mm 3 mps 756 mmHg 49%
    02:00 +22°C° 0 mm 4 mps 756 mmHg 50%
    03:00 +22°C° 0 mm 4 mps 756 mmHg 51%
    04:00 +22°C° 0 mm 4 mps 756 mmHg 52%
    05:00 +22°C° 0 mm 5 mps 756 mmHg 54%
    06:00 +22°C° 0 mm 5 mps 757 mmHg 55%
    07:00 +23°C° 0 mm 5 mps 757 mmHg 49%
    08:00 +25°C° 0 mm 4 mps 757 mmHg 43%
    09:00 +26°C° 0 mm 4 mps 758 mmHg 37%
    10:00 +27°C° 0 mm 4 mps 757 mmHg 37%
    11:00 +28°C° 0 mm 4 mps 757 mmHg 36%
    12:00 +29°C° 0 mm 5 mps 756 mmHg 35%
    13:00 +29°C° 0 mm 5 mps 755 mmHg 38%
    14:00 +29°C° 0 mm 5 mps 755 mmHg 40%
    15:00 +29°C° 0 mm 5 mps 754 mmHg 43%
    16:00 +28°C° 0 mm 5 mps 754 mmHg 48%
    17:00 +27°C° 0 mm 5 mps 754 mmHg 53%
    18:00 +26°C° 0 mm 5 mps 754 mmHg 58%
    19:00 +26°C° 0 mm 4 mps 754 mmHg 61%
    20:00 +25°C° 0 mm 3 mps 755 mmHg 63%
    21:00 +25°C° 0 mm 2 mps 755 mmHg 65%
    22:00 +25°C° 0 mm 3 mps 754 mmHg 66%
    23:00 +23°C° 0 mm 4 mps 754 mmHg 67%

    24 March, Sunday

    Time Temperature Precipitation Wind Pressure Humidity
    00:00 +23°C° 0 mm 5 mps 753 mmHg 68%
    01:00 +23°C° 0 mm 4 mps 753 mmHg 71%
    02:00 +22°C° 0 mm 4 mps 752 mmHg 73%
    03:00 +22°C° 0 mm 3 mps 752 mmHg 76%
    04:00 +22°C° 0 mm 3 mps 752 mmHg 77%
    05:00 +22°C° 0 mm 4 mps 753 mmHg 78%
    06:00 +22°C° 0 mm 4 mps 753 mmHg 79%
    07:00 +23°C° 0 mm 4 mps 753 mmHg 76%
    08:00 +23°C° 0 mm 4 mps 753 mmHg 74%
    09:00 +25°C° 0 mm 4 mps 754 mmHg 71%
    10:00 +26°C° 0 mm 3 mps 753 mmHg 67%
    11:00 +26°C° 0 mm 2 mps 753 mmHg 64%
    12:00 +27°C° 0 mm 1 mps 752 mmHg 61%
    13:00 +27°C° 0 mm 3 mps 752 mmHg 66%
    14:00 +27°C° 0 mm 5 mps 752 mmHg 70%
    15:00 +26°C° 0 mm 8 mps 751 mmHg 75%
    16:00 +26°C° 0 mm 7 mps 752 mmHg 76%
    17:00 +24°C° 0 mm 7 mps 752 mmHg 76%
    18:00 +24°C° 0 mm 7 mps 752 mmHg 77%
    19:00 +23°C° 0 mm 7 mps 753 mmHg 79%
    20:00 +23°C° 0 mm 6 mps 753 mmHg 81%
    21:00 +22°C° 0 mm 6 mps 754 mmHg 83%
    22:00 +22°C° 0 mm 5 mps 754 mmHg 84%
    23:00 +22°C° 0 mm 5 mps 754 mmHg 86%

    25 March, Monday

    Time Temperature Precipitation Wind Pressure Humidity
    00:00 +22°C° 0 mm 4 mps 754 mmHg 87%
    01:00 +22°C° 0.1 mm 5 mps 754 mmHg 86%
    02:00 +22°C° 0.1 mm 5 mps 753 mmHg 85%
    03:00 +22°C° 0.1 mm 6 mps 753 mmHg 85%
    04:00 +22°C° 0 mm 5 mps 754 mmHg 81%
    05:00 +22°C° 0 mm 5 mps 754 mmHg 77%
    06:00 +22°C° 0 mm 5 mps 754 mmHg 73%
    07:00 +23°C° 0 mm 4 mps 755 mmHg 66%
    08:00 +25°C° 0 mm 3 mps 755 mmHg 58%
    09:00 +26°C° 0 mm 2 mps 756 mmHg 51%
    10:00 +27°C° 0 mm 2 mps 755 mmHg 49%
    11:00 +28°C° 0 mm 2 mps 755 mmHg 47%
    12:00 +28°C° 0 mm 2 mps 755 mmHg 45%
    13:00 +29°C° 0 mm 3 mps 755 mmHg 44%
    14:00 +29°C° 0 mm 4 mps 754 mmHg 43%
    15:00 +29°C° 0 mm 4 mps 754 mmHg 42%
    16:00 +28°C° 0 mm 5 mps 754 mmHg 47%
    17:00 +27°C° 0 mm 5 mps 754 mmHg 51%
    18:00 +26°C° 0 mm 6 mps 754 mmHg 55%
    19:00 +26°C° 0 mm 6 mps 754 mmHg 58%
    20:00 +24°C° 0 mm 6 mps 754 mmHg 62%
    21:00 +23°C° 0 mm 6 mps 755 mmHg 65%
    22:00 +23°C° 0 mm 6 mps 754 mmHg 65%
    23:00 +24°C° 0 mm 6 mps 754 mmHg 65%
    Show more